#timestamp,LO_Frequency,Hit,StdDev 
1697454015.2,286046996.4,N
1697454035.0,286046995.1,N
1697454035.9,286046995.1,N
1697454055.8,286046995.2,N
1697454075.6,286046995.5,N
1697454095.4,286046995.4,N
1697454115.3,286046995.5,N
1697454135.1,286046995.0,N
1697454155.9,286046995.2,N
1697454205.7,286046993.9,E
1697454215.6,286046997.5,N
1697454235.5,286047001.1,P
1697454255.3,286047001.0,N
1697454275.2,286047000.5,N
1697454295.9,286047000.4,N
1697454315.7,286047000.4,N
1697454335.6,286047000.2,N
1697454355.4,286047000.3,N
1697454375.2,286047001.9,N
1697454395.1,286047002.8,N
1697454396.0,286047002.8,N
1697454415.8,286047002.1,N
1697454435.7,286047002.4,N
1697454455.5,286047000.2,N
1697454475.3,286047002.2,N
1697454495.2,286047001.4,N
1697454515.0,286047002.2,N
1697454515.9,286047002.2,N
1697454535.7,286047001.9,N
1697454555.6,286047002.0,N
1697454575.4,286047001.5,N
1697454595.3,286047001.3,N
1697454615.1,286047001.9,N
1697454616.0,286047001.9,N
1697454635.8,286047001.8,N
1697454655.7,286047004.1,Y
1697454675.5,286047001.3,P
1697454695.4,286047001.3,P
1697454715.2,286047004.0,P
1697454735.0,286047003.6,Y
1697454735.9,286047003.6,P
1697454755.8,286047001.7,N
1697454775.6,286047002.1,N
1697454795.4,286047000.6,N
1697454815.3,286046999.2,N
1697454835.1,286046996.5,N
1697454855.9,286046997.8,N
1697454875.7,286046995.1,N
1697454895.5,286046997.4,N
1697454915.4,286046999.1,N
1697454935.2,286047001.0,N
1697454955.0,286046998.1,N
1697454955.9,286046998.1,N
1697454975.8,286046996.5,N
1697454995.6,286046997.6,N
1697455015.5,286046998.0,N
1697455035.3,286046996.9,N
1697455055.1,286046996.5,N
1697455075.9,286046998.9,N
1697455095.7,286047000.3,N
1697455115.5,286046999.3,N
1697455135.4,286046997.8,N
1697455155.2,286046995.8,N
1697455175.1,286046994.5,N
1697455176.0,286046994.5,N
1697455195.8,286046994.4,N
1697455215.6,286046994.3,N
1697455235.5,286046991.9,Y
1697455255.3,286046994.0,P
1697455275.2,286046995.9,N
1697455295.9,286046993.3,P
1697455315.7,286046996.3,N
1697455335.6,286046994.1,Y
1697455355.4,286046998.6,P
1697455375.2,286046998.4,N
1697455395.1,286047000.8,N
1697455396.0,286047000.8,N
1697455415.8,286047000.3,N
1697455435.7,286047002.5,N
1697455455.5,286047000.1,N
1697455475.3,286047002.1,N
1697455495.2,286047002.5,N
1697455515.0,286047000.0,N
1697455515.9,286047000.0,N
1697455535.8,286047000.8,N
1697455555.6,286047000.8,N
1697455575.4,286047001.2,N
1697455595.3,286046998.2,N
1697455615.1,286047001.0,N
1697455635.8,286047001.0,N
1697455655.7,286047001.2,N
1697455675.5,286046999.2,N
1697455695.4,286046999.4,N
1697455715.2,286046996.8,N
1697455735.0,286046997.6,N
1697455735.9,286046997.6,N
1697455755.8,286046995.0,N
1697455775.6,286046995.2,N
1697455795.4,286046995.4,N
1697455815.3,286046997.8,N
1697455835.1,286046997.8,N
1697455855.9,286046999.1,N
1697455875.7,286046999.4,N
1697455895.5,286047001.2,N
1697455915.4,286047002.4,N
1697455935.2,286047002.0,N
1697455955.0,286047004.2,N
1697455955.9,286047004.2,N
1697455975.8,286047003.1,N
1697455995.6,286047004.2,N
1697456015.5,286047005.5,N
1697456035.3,286047007.2,N
1697456055.1,286047007.0,N
1697456075.9,286047008.7,N
1697456095.7,286047007.4,N
1697456115.6,286047003.3,N
1697456135.4,286047003.7,N
1697456155.2,286047003.6,N
1697456175.1,286047001.8,N
1697456176.0,286047001.8,N
1697456195.8,286047000.0,N
1697456215.6,286047000.7,N
1697456235.5,286047001.1,N
1697456255.3,286046998.9,N
1697456275.2,286047001.1,N
1697456295.9,286047001.2,N
1697456315.7,286047000.4,N
1697456335.6,286046999.8,N
1697456355.4,286047000.9,N
1697456375.2,286046998.1,N
1697456395.1,286046998.3,N
1697456396.0,286046998.3,N
1697456415.8,286046998.7,N
1697456435.7,286047001.1,N
1697456455.5,286047000.6,N
1697456475.3,286047000.4,N
1697456495.2,286047000.6,N
1697456515.0,286047001.2,N
1697456515.9,286047001.2,N
1697456535.7,286047001.2,N
1697456555.6,286047001.0,N
1697456575.4,286047000.7,N
1697456595.3,286047000.4,N
1697456615.1,286047000.5,N
1697456635.8,286047000.4,N
1697456655.7,286047001.7,N
1697456675.5,286047003.0,N
1697456695.4,286047006.0,Y
1697456715.2,286047005.5,P
1697456735.0,286047009.1,P
1697456735.9,286047009.1,N
1697456755.8,286047009.2,N
1697456775.6,286047006.8,N
1697456795.4,286047005.5,N
1697456815.3,286047003.8,N
1697456835.1,286047004.1,N
1697456855.9,286047001.5,N
1697456875.7,286046999.9,N
1697456895.5,286046999.8,N
1697456915.4,286047002.5,N
1697456935.2,286047000.6,N
1697456955.0,286046998.6,N
1697456956.0,286046998.6,N
1697456975.8,286046996.5,N
1697456995.6,286046997.0,N
1697457015.5,286046996.7,N
1697457035.3,286046997.3,N
1697457055.1,286046999.2,N
1697457075.9,286046996.8,N
1697457095.7,286046996.5,N
1697457115.6,286047000.6,N
1697457135.4,286047002.9,N
1697457155.2,286047003.2,N
1697457175.1,286047004.4,N
1697457176.0,286047004.4,N
1697457195.8,286046999.8,N
1697457215.7,286046998.3,N
1697457235.5,286046997.0,N
1697457255.3,286046995.2,N
1697457275.2,286046993.7,N
1697457295.0,286046993.7,N
1697457295.9,286046993.7,N
1697457315.8,286046993.3,N
1697457335.6,286046993.8,N
1697457355.4,286046993.8,N
1697457375.3,286046993.7,N
1697457395.1,286046993.6,N
1697457445.9,286046996.5,E
1697457455.8,286047001.0,N
1697457475.6,286047000.4,P
1697457495.5,286046998.7,P
1697457515.3,286046996.8,Y
1697457535.1,286046997.3,P
1697457555.9,286046997.5,N
1697457575.7,286046997.3,N
1697457595.6,286046997.4,N
